| time (UTC) | temp C | wind direction | speed KPH | gust KPH | rain 1hr cm | rain 24hr cm | rain mn cm | humidity % | barometer mb |
| 20260504002712 | 23 | 0 | 4.8 | 8.0 | 0.00 | 0.00 | 0.00 | 40 | 1001.7 |
| 20260504001213 | 23 | 293 | 4.8 | 8.0 | 0.00 | 0.00 | 0.00 | 40 | 1001.4 |
| 20260503235713 | 23 | 293 | 3.2 | 3.2 | 0.00 | 0.00 | 0.00 | 42 | 1001.7 |
| 20260503234213 | 23 | 293 | 3.2 | 3.2 | 0.00 | 0.00 | 0.00 | 43 | 1002.0 |
| 20260503232713 | 23 | 293 | 1.6 | 3.2 | 0.00 | 0.00 | 0.00 | 43 | 1002.4 |
| 20260503231213 | 23 | 293 | 3.2 | 4.8 | 0.00 | 0.00 | 0.00 | 44 | 1002.4 |
| 20260503225713 | 23 | 293 | 3.2 | 3.2 | 0.00 | 0.00 | 0.00 | 43 | 1002.4 |
| 20260503224213 | 23 | 315 | 4.8 | 8.0 | 0.00 | 0.00 | 0.00 | 44 | 1002.7 |
| 20260503222713 | 24 | 338 | 6.4 | 8.0 | 0.00 | 0.00 | 0.00 | 44 | 1003.0 |
| 20260503221213 | 23 | 315 | 4.8 | 8.0 | 0.00 | 0.00 | 0.00 | 44 | 1003.0 |
| 20260503215713 | 23 | 338 | 6.4 | 8.0 | 0.00 | 0.00 | 0.00 | 43 | 1003.0 |
| 20260503214213 | 23 | 270 | 4.8 | 8.0 | 0.00 | 0.00 | 0.00 | 48 | 1003.0 |
| 20260503212713 | 23 | 315 | 4.8 | 8.0 | 0.00 | 0.00 | 0.00 | 48 | 1003.4 |
| 20260503211213 | 23 | 315 | 4.8 | 6.4 | 0.00 | 0.00 | 0.00 | 46 | 1003.7 |
| 20260503205713 | 22 | 315 | 3.2 | 4.8 | 0.00 | 0.00 | 0.00 | 47 | 1003.4 |
| 20260503204213 | 22 | 248 | 4.8 | 8.0 | 0.00 | 0.00 | 0.00 | 48 | 1003.7 |
| 20260503202713 | 22 | 315 | 1.6 | 4.8 | 0.00 | 0.00 | 0.00 | 44 | 1003.7 |
| 20260503201213 | 22 | 293 | 8.0 | 11.3 | 0.00 | 0.00 | 0.00 | 42 | 1004.4 |
| 20260503195713 | 22 | 315 | 8.0 | 8.0 | 0.00 | 0.00 | 0.00 | 44 | 1004.4 |
| 20260503194213 | 22 | 338 | 8.0 | 9.7 | 0.00 | 0.00 | 0.00 | 50 | 1004.7 |
| 20260503192713 | 22 | 293 | 4.8 | 8.0 | 0.00 | 0.00 | 0.00 | 49 | 1004.7 |
| 20260503191213 | 22 | 270 | 4.8 | 4.8 | 0.00 | 0.00 | 0.00 | 51 | 1004.7 |
| 20260503185713 | 23 | 315 | 3.2 | 4.8 | 0.00 | 0.00 | 0.00 | 48 | 1005.1 |
| 20260503184212 | 23 | 315 | 4.8 | 6.4 | 0.00 | 0.00 | 0.00 | 46 | 1005.1 |
| 20260503182712 | 21 | 338 | 1.6 | 3.2 | 0.00 | 0.00 | 0.00 | 55 | 1005.1 |
| 20260503181212 | 21 | 315 | 4.8 | 8.0 | 0.00 | 0.00 | 0.00 | 55 | 1005.4 |
| 20260503175712 | 22 | 338 | 4.8 | 4.8 | 0.00 | 0.00 | 0.00 | 53 | 1005.4 |
| 20260503174212 | 23 | 45 | 3.2 | 3.2 | 0.00 | 0.00 | 0.00 | 46 | 1005.4 |
| 20260503172712 | 23 | 0 | 4.8 | 4.8 | 0.00 | 0.00 | 0.00 | 49 | 1005.4 |
| 20260503171212 | 21 | 23 | 6.4 | 11.3 | 0.00 | 0.00 | 0.00 | 49 | 1005.4 |
| 20260503131212 | 15 | 0 | 1.6 | 3.2 | 0.00 | 0.00 | 0.00 | 68 | 1005.1 |
| 20260503081213 | 13 | 23 | 0.0 | 0.0 | 0.00 | 0.00 | 0.00 | 66 | 1005.8 |
| 20260503072713 | 16 | 90 | 0.0 | 0.0 | 0.00 | 0.00 | 0.00 | 57 | 1005.8 |
| 20260503071213 | 17 | 45 | 1.6 | 3.2 | 0.00 | 0.00 | 0.00 | 52 | 1005.8 |
| 20260503054213 | 17 | 23 | 0.0 | 1.6 | 0.00 | 0.00 | 0.00 | 53 | 1005.8 |
| 20260503052713 | 17 | 23 | 0.0 | 0.0 | 0.00 | 0.00 | 0.00 | 56 | 1005.4 |
| 20260503051213 | 17 | 0 | 1.6 | 1.6 | 0.00 | 0.00 | 0.00 | 56 | 1005.8 |
| 20260503045713 | 17 | 45 | 0.0 | 0.0 | 0.00 | 0.00 | 0.00 | 53 | 1005.4 |
| 20260503044213 | 18 | 23 | 0.0 | 0.0 | 0.00 | 0.00 | 0.00 | 51 | 1005.8 |
| 20260503042713 | 18 | 0 | 0.0 | 1.6 | 0.00 | 0.00 | 0.00 | 49 | 1005.4 |
| 20260503041213 | 18 | 68 | 1.6 | 3.2 | 0.00 | 0.00 | 0.00 | 50 | 1005.4 |
| 20260503035713 | 18 | 338 | 4.8 | 6.4 | 0.00 | 0.00 | 0.00 | 50 | 1004.7 |
| 20260503034213 | 18 | 0 | 1.6 | 3.2 | 0.00 | 0.00 | 0.00 | 51 | 1004.7 |
| 20260503032713 | 18 | 23 | 3.2 | 3.2 | 0.00 | 0.00 | 0.00 | 51 | 1004.4 |
| 20260503031213 | 19 | 315 | 0.0 | 0.0 | 0.00 | 0.00 | 0.00 | 52 | 1004.4 |
| 20260503025713 | 19 | 68 | 1.6 | 3.2 | 0.00 | 0.00 | 0.00 | 52 | 1004.4 |
| 20260503024212 | 20 | 0 | 6.4 | 8.0 | 0.00 | 0.00 | 0.00 | 51 | 1004.1 |
| 20260503022713 | 20 | 338 | 3.2 | 4.8 | 0.00 | 0.00 | 0.00 | 51 | 1004.4 |
| 20260503021212 | 20 | 338 | 3.2 | 4.8 | 0.00 | 0.00 | 0.00 | 52 | 1004.7 |
| 20260503015712 | 20 | 338 | 6.4 | 8.0 | 0.00 | 0.00 | 0.00 | 52 | 1004.4 |
| 20260503014212 | 20 | 315 | 4.8 | 4.8 | 0.00 | 0.00 | 0.00 | 53 | 1004.4 |
| 20260503012712 | 20 | 338 | 4.8 | 6.4 | 0.00 | 0.00 | 0.00 | 53 | 1004.4 |
| 20260503011212 | 21 | 338 | 8.0 | 9.7 | 0.00 | 0.00 | 0.00 | 52 | 1004.7 |
| 20260503005712 | 21 | 338 | 6.4 | 11.3 | 0.00 | 0.00 | 0.00 | 52 | 1004.4 |
| 20260503004212 | 21 | 338 | 3.2 | 3.2 | 0.00 | 0.00 | 0.00 | 52 | 1005.1 |